,,,PA_Meas_PMT16A,,PR_Meas_QMR101_102,,RH_Meas_QMH101,,SR_Meas_QMS101,,TA_Meas_QMH101,,GenWind,,GenWind,
date,time,status,PA,status,PR,status,RH,status,SR,status,TA,status,DirAvg,status,SpdAvg,
2011-12-17, 00:00:04,VALID,997.872,VALID,0,VALID,92.7762,VALID,0,VALID,23.8945,VALID,21,VALID,0.00585938,
2011-12-17, 00:01:04,VALID,997.828,VALID,0,VALID,92.7685,VALID,0,VALID,23.8963,VALID,21,VALID,0,
2011-12-17, 00:02:04,VALID,997.837,VALID,0,VALID,92.7151,VALID,0,VALID,23.8555,VALID,21,VALID,0,
2011-12-17, 00:03:04,VALID,997.78,VALID,0,VALID,92.7762,VALID,0,VALID,23.8555,VALID,21,VALID,0,
2011-12-17, 00:04:04,VALID,997.804,VALID,0,VALID,92.8525,VALID,0,VALID,23.8945,VALID,21,VALID,0,
2011-12-17, 00:05:04,VALID,997.813,VALID,0,VALID,92.9517,VALID,0,VALID,23.914,VALID,21,VALID,0.111328,
2011-12-17, 00:06:04,VALID,997.831,VALID,0,VALID,93.0432,VALID,0,VALID,23.9336,VALID,21,VALID,0.248047,
2011-12-17, 00:07:04,VALID,997.795,VALID,0,VALID,93.0814,VALID,0,VALID,23.9531,VALID,21,VALID,0.211328,
2011-12-17, 00:08:04,VALID,997.794,VALID,0,VALID,93.1271,VALID,0,VALID,23.9726,VALID,21,VALID,0,
2011-12-17, 00:09:04,VALID,997.804,VALID,0,VALID,93.1348,VALID,0,VALID,23.9726,VALID,21,VALID,0,
2011-12-17, 00:10:04,VALID,997.779,VALID,0,VALID,93.1577,VALID,0,VALID,23.9726,VALID,21,VALID,0,
2011-12-17, 00:11:04,VALID,997.795,VALID,0,VALID,93.15,VALID,0,VALID,23.9939,VALID,21,VALID,0,
2011-12-17, 00:12:04,VALID,997.824,VALID,0,VALID,93.1195,VALID,0,VALID,23.9726,VALID,21,VALID,0,
2011-12-17, 00:13:04,VALID,997.806,VALID,0,VALID,93.0585,VALID,0,VALID,23.9744,VALID,21,VALID,0,
2011-12-17, 00:14:04,VALID,997.831,VALID,0,VALID,92.9898,VALID,0,VALID,23.9549,VALID,21,VALID,0.265234,
2011-12-17, 00:15:04,VALID,997.811,VALID,0,VALID,92.9822,VALID,0,VALID,23.9336,VALID,21,VALID,0.416797,
2011-12-17, 00:16:04,VALID,997.791,VALID,0,VALID,92.9974,VALID,0,VALID,23.9354,VALID,21,VALID,0.575391,
2011-12-17, 00:17:04,VALID,997.783,VALID,0,VALID,93.0508,VALID,0,VALID,23.9336,VALID,76,VALID,0.800391,
2011-12-17, 00:18:04,VALID,997.802,VALID,0,VALID,92.9288,VALID,0,VALID,23.9354,VALID,62,VALID,0.505469,
2011-12-17, 00:19:04,VALID,997.795,VALID,0,VALID,92.738,VALID,0,VALID,23.8555,VALID,61,VALID,0.550391,
2011-12-17, 00:20:04,VALID,997.763,VALID,0,VALID,92.7228,VALID,0,VALID,23.8378,VALID,44,VALID,0.721484,
2011-12-17, 00:21:04,VALID,997.746,VALID,0,VALID,92.7533,VALID,0,VALID,23.797,VALID,34,VALID,0.812109,
2011-12-17, 00:22:04,VALID,997.708,VALID,0,VALID,92.8906,VALID,0,VALID,23.7775,VALID,34,VALID,1.00508,
2011-12-17, 00:23:04,VALID,997.693,VALID,0,VALID,92.9898,VALID,0.104696,VALID,23.7988,VALID,34,VALID,1.2707,
2011-12-17, 00:24:04,VALID,997.642,VALID,0,VALID,93.0051,VALID,0,VALID,23.7775,VALID,32,VALID,1.07656,
2011-12-17, 00:25:04,VALID,997.626,VALID,0,VALID,92.9364,VALID,0,VALID,23.7207,VALID,19,VALID,0.889063,
2011-12-17, 00:26:04,VALID,997.632,VALID,0,VALID,92.822,VALID,0,VALID,23.6622,VALID,357,VALID,0.661328,
2011-12-17, 00:27:04,VALID,997.656,VALID,0,VALID,92.8525,VALID,0,VALID,23.664,VALID,343,VALID,0.798047,
2011-12-17, 00:28:04,VALID,997.613,VALID,0,VALID,93.0432,VALID,0,VALID,23.6817,VALID,343,VALID,0.813672,
2011-12-17, 00:29:04,VALID,997.603,VALID,0,VALID,93.1577,VALID,0,VALID,23.7012,VALID,343,VALID,0.455469,
2011-12-17, 00:30:04,VALID,997.606,VALID,0,VALID,93.2568,VALID,0,VALID,23.7616,VALID,343,VALID,0.157813,
2011-12-17, 00:31:04,VALID,997.58,VALID,0,VALID,93.2797,VALID,0,VALID,23.7402,VALID,343,VALID,0.503906,
2011-12-17, 00:32:04,VALID,997.598,VALID,0,VALID,93.356,VALID,0,VALID,23.7597,VALID,3,VALID,0.783203,
2011-12-17, 00:33:04,VALID,997.567,VALID,0,VALID,93.3942,VALID,0,VALID,23.8006,VALID,34,VALID,0.695703,
2011-12-17, 00:34:04,VALID,997.555,VALID,0,VALID,93.3942,VALID,0,VALID,23.7988,VALID,34,VALID,0.766406,
2011-12-17, 00:35:04,VALID,997.545,VALID,0,VALID,93.3331,VALID,0,VALID,23.7988,VALID,34,VALID,0.729688,
2011-12-17, 00:36:04,VALID,997.547,VALID,0,VALID,93.3026,VALID,0,VALID,23.7793,VALID,47,VALID,0.587891,
2011-12-17, 00:37:04,VALID,997.504,VALID,0,VALID,93.15,VALID,0,VALID,23.7597,VALID,12,VALID,0.730859,
2011-12-17, 00:38:04,VALID,997.526,VALID,0,VALID,93.1271,VALID,0,VALID,23.7616,VALID,348,VALID,0.751562,
2011-12-17, 00:39:04,VALID,997.529,VALID,0,VALID,93.1577,VALID,0,VALID,23.7597,VALID,348,VALID,0.408203,
2011-12-17, 00:40:04,VALID,997.47,VALID,0,VALID,93.15,VALID,0,VALID,23.7811,VALID,357,VALID,0.728906,
2011-12-17, 00:41:04,VALID,997.467,VALID,0,VALID,93.1805,VALID,0,VALID,23.7793,VALID,33,VALID,0.978516,
2011-12-17, 00:42:04,VALID,997.476,VALID,0,VALID,93.1805,VALID,0,VALID,23.7597,VALID,45,VALID,1.06094,
2011-12-17, 00:43:04,VALID,997.401,VALID,0,VALID,93.1805,VALID,0,VALID,23.8006,VALID,45,VALID,1.23555,
2011-12-17, 00:44:04,VALID,997.419,VALID,0,VALID,93.1577,VALID,0,VALID,23.7811,VALID,45,VALID,1.21953,
2011-12-17, 00:45:04,VALID,997.367,VALID,0,VALID,93.1043,VALID,0,VALID,23.7402,VALID,45,VALID,0.905859,
2011-12-17, 00:46:04,VALID,997.336,VALID,0,VALID,93.1271,VALID,0,VALID,23.7402,VALID,54,VALID,0.582422,
2011-12-17, 00:47:04,VALID,997.284,VALID,0,VALID,93.1348,VALID,0,VALID,23.7616,VALID,54,VALID,0.532812,
2011-12-17, 00:48:04,VALID,997.266,VALID,0,VALID,93.1805,VALID,0,VALID,23.7402,VALID,57,VALID,0.63125,
2011-12-17, 00:49:04,VALID,997.264,VALID,0,VALID,93.2187,VALID,0,VALID,23.7597,VALID,60,VALID,0.769922,
2011-12-17, 00:50:04,VALID,997.24,VALID,0,VALID,93.2492,VALID,0,VALID,23.7793,VALID,60,VALID,0.660937,
2011-12-17, 00:51:04,VALID,997.233,VALID,0,VALID,93.2416,VALID,0,VALID,23.7793,VALID,60,VALID,0.436719,
2011-12-17, 00:52:04,VALID,997.213,VALID,0,VALID,93.1958,VALID,0,VALID,23.7597,VALID,60,VALID,0.325,
2011-12-17, 00:53:04,VALID,997.213,VALID,0,VALID,93.1043,VALID,0,VALID,23.7402,VALID,60,VALID,0,
2011-12-17, 00:54:04,VALID,997.18,VALID,0,VALID,93.028,VALID,0,VALID,23.7225,VALID,60,VALID,0,
2011-12-17, 00:55:04,VALID,997.161,VALID,0,VALID,93.0432,VALID,0,VALID,23.7012,VALID,60,VALID,0.248437,
2011-12-17, 00:56:04,VALID,997.146,VALID,0,VALID,93.1195,VALID,0,VALID,23.7012,VALID,60,VALID,0.293359,
2011-12-17, 00:57:04,VALID,997.118,VALID,0,VALID,93.1195,VALID,0,VALID,23.7012,VALID,60,VALID,0.0925781,
2011-12-17, 00:58:04,VALID,997.091,VALID,0,VALID,93.1805,VALID,0,VALID,23.7012,VALID,60,VALID,0.427344,
2011-12-17, 00:59:04,VALID,997.061,VALID,0,VALID,93.2874,VALID,0.104696,VALID,23.6994,VALID,60,VALID,0.382422,
2011-12-17, 01:00:04,VALID,997.043,VALID,0,VALID,93.295,VALID,0,VALID,23.6799,VALID,71,VALID,0.835547,
2011-12-17, 01:01:04,VALID,997.044,VALID,0,VALID,93.3484,VALID,0,VALID,23.6994,VALID,80,VALID,0.880469,
2011-12-17, 01:02:04,VALID,997.019,VALID,0,VALID,93.3942,VALID,0,VALID,23.7189,VALID,69,VALID,0.5375,
2011-12-17, 01:03:04,VALID,997.019,VALID,0,VALID,93.3866,VALID,0,VALID,23.7384,VALID,70,VALID,0.254687,
2011-12-17, 01:04:04,VALID,996.996,VALID,0,VALID,93.3255,VALID,0,VALID,23.7189,VALID,70,VALID,0,
2011-12-17, 01:05:04,VALID,996.982,VALID,0,VALID,93.2874,VALID,0,VALID,23.7207,VALID,70,VALID,0,
2011-12-17, 01:06:04,VALID,996.943,VALID,0,VALID,93.2492,VALID,0,VALID,23.6799,VALID,70,VALID,0,
2011-12-17, 01:07:04,VALID,996.945,VALID,0,VALID,93.2111,VALID,0.104696,VALID,23.6604,VALID,70,VALID,0,
2011-12-17, 01:08:04,VALID,996.94,VALID,0,VALID,93.2034,VALID,0,VALID,23.6604,VALID,70,VALID,0,
2011-12-17, 01:09:04,VALID,996.928,VALID,0,VALID,93.2416,VALID,0,VALID,23.6409,VALID,70,VALID,0.24375,
2011-12-17, 01:10:04,VALID,996.944,VALID,0,VALID,93.2874,VALID,0,VALID,23.6622,VALID,70,VALID,0.171875,
2011-12-17, 01:11:04,VALID,996.95,VALID,0,VALID,93.3713,VALID,0,VALID,23.6817,VALID,70,VALID,0.171875,
2011-12-17, 01:12:04,VALID,996.932,VALID,0,VALID,93.4094,VALID,0,VALID,23.7012,VALID,70,VALID,0,
2011-12-17, 01:13:04,VALID,996.95,VALID,0,VALID,93.4552,VALID,0,VALID,23.7207,VALID,70,VALID,0,
2011-12-17, 01:14:04,VALID,996.924,VALID,0,VALID,93.4323,VALID,0,VALID,23.6817,VALID,70,VALID,0.000390625,
2011-12-17, 01:15:04,VALID,996.957,VALID,0,VALID,93.4247,VALID,0,VALID,23.6427,VALID,70,VALID,0.457422,
2011-12-17, 01:16:04,VALID,996.925,VALID,0,VALID,93.4552,VALID,0,VALID,23.6622,VALID,70,VALID,0.607031,
2011-12-17, 01:17:04,VALID,996.897,VALID,0,VALID,93.4705,VALID,0,VALID,23.6835,VALID,70,VALID,0.753906,
2011-12-17, 01:18:04,VALID,996.893,VALID,0,VALID,93.501,VALID,0,VALID,23.6622,VALID,66,VALID,1.02227,
2011-12-17, 01:19:04,VALID,996.88,VALID,0,VALID,93.5391,VALID,0,VALID,23.6817,VALID,66,VALID,1.04727,
2011-12-17, 01:20:04,VALID,996.879,VALID,0,VALID,93.5086,VALID,0,VALID,23.6622,VALID,66,VALID,1.16758,
2011-12-17, 01:21:04,VALID,996.928,VALID,0,VALID,93.4094,VALID,0,VALID,23.6232,VALID,66,VALID,1.0543,
2011-12-17, 01:22:04,VALID,996.951,VALID,0,VALID,93.2797,VALID,0,VALID,23.5646,VALID,66,VALID,1.01523,
2011-12-17, 01:23:04,VALID,996.946,VALID,0,VALID,93.2416,VALID,0,VALID,23.5451,VALID,66,VALID,1.2,
2011-12-17, 01:24:04,VALID,996.966,VALID,0,VALID,93.2645,VALID,0,VALID,23.5061,VALID,66,VALID,0.945703,
2011-12-17, 01:25:04,VALID,996.939,VALID,0,VALID,93.2721,VALID,0,VALID,23.4866,VALID,64,VALID,0.881641,
2011-12-17, 01:26:04,VALID,996.931,VALID,0,VALID,93.3331,VALID,0,VALID,23.4671,VALID,60,VALID,0.70625,
2011-12-17, 01:27:04,VALID,996.913,VALID,0,VALID,93.3942,VALID,0,VALID,23.4671,VALID,60,VALID,0.557813,
2011-12-17, 01:28:04,VALID,996.911,VALID,0,VALID,93.4094,VALID,0,VALID,23.4671,VALID,60,VALID,0.173047,
2011-12-17, 01:29:04,VALID,996.905,VALID,0,VALID,93.4552,VALID,0,VALID,23.4067,VALID,60,VALID,0,
2011-12-17, 01:30:04,VALID,996.873,VALID,0,VALID,93.4934,VALID,0,VALID,23.4085,VALID,60,VALID,0,
2011-12-17, 01:31:04,VALID,996.883,VALID,0,VALID,93.501,VALID,0,VALID,23.4085,VALID,60,VALID,0.00117188,
2011-12-17, 01:32:04,VALID,996.839,VALID,0,VALID,93.5315,VALID,0,VALID,23.389,VALID,60,VALID,0.210547,
2011-12-17, 01:33:04,VALID,996.823,VALID,0,VALID,93.5544,VALID,0,VALID,23.35,VALID,60,VALID,0.269141,
2011-12-17, 01:34:04,VALID,996.838,VALID,0,VALID,93.5697,VALID,0,VALID,23.3305,VALID,60,VALID,0.198828,
2011-12-17, 01:35:04,VALID,996.818,VALID,0,VALID,93.6307,VALID,0,VALID,23.3305,VALID,60,VALID,0,
2011-12-17, 01:36:04,VALID,996.829,VALID,0,VALID,93.6841,VALID,0,VALID,23.35,VALID,60,VALID,0.455078,
2011-12-17, 01:37:04,VALID,996.814,VALID,0,VALID,93.7528,VALID,0,VALID,23.4103,VALID,338,VALID,0.532031,
2011-12-17, 01:38:04,VALID,996.771,VALID,0,VALID,93.8138,VALID,0,VALID,23.4103,VALID,338,VALID,0.121484,
2011-12-17, 01:39:04,VALID,996.777,VALID,0,VALID,93.8596,VALID,0,VALID,23.389,VALID,338,VALID,0.353125,
2011-12-17, 01:40:04,VALID,996.788,VALID,0,VALID,93.8825,VALID,0,VALID,23.4103,VALID,73,VALID,0.54375,
2011-12-17, 01:41:04,VALID,996.804,VALID,0,VALID,93.8825,VALID,0,VALID,23.4085,VALID,78,VALID,0.674219,
2011-12-17, 01:42:04,VALID,996.777,VALID,0,VALID,93.9435,VALID,0,VALID,23.4671,VALID,92,VALID,0.790625,
2011-12-17, 01:43:04,VALID,996.766,VALID,0,VALID,93.9817,VALID,0,VALID,23.5664,VALID,106,VALID,0.888281,
2011-12-17, 01:44:04,VALID,996.752,VALID,0,VALID,94.0274,VALID,0,VALID,23.5859,VALID,106,VALID,0.6625,
2011-12-17, 01:45:04,VALID,996.783,VALID,0,VALID,94.0045,VALID,0,VALID,23.5646,VALID,107,VALID,0.499219,
2011-12-17, 01:46:04,VALID,996.767,VALID,0,VALID,93.9664,VALID,0,VALID,23.5256,VALID,107,VALID,0.312891,
2011-12-17, 01:47:04,VALID,996.745,VALID,0,VALID,93.913,VALID,0,VALID,23.4866,VALID,107,VALID,0.0957031,
2011-12-17, 01:48:04,VALID,996.733,VALID,0,VALID,93.8901,VALID,0,VALID,23.4866,VALID,107,VALID,0.191406,
2011-12-17, 01:49:04,VALID,996.7,VALID,0,VALID,93.8825,VALID,0,VALID,23.4866,VALID,107,VALID,0.248828,
2011-12-17, 01:50:04,VALID,996.701,VALID,0,VALID,93.852,VALID,0,VALID,23.4866,VALID,107,VALID,0.171094,
2011-12-17, 01:51:04,VALID,996.683,VALID,0,VALID,93.852,VALID,0,VALID,23.5256,VALID,107,VALID,0.462891,
2011-12-17, 01:52:04,VALID,996.659,VALID,0,VALID,93.852,VALID,0,VALID,23.5451,VALID,82,VALID,0.8125,
2011-12-17, 01:53:04,VALID,996.626,VALID,0,VALID,93.8825,VALID,0,VALID,23.5256,VALID,64,VALID,0.690625,
2011-12-17, 01:54:04,VALID,996.581,VALID,0,VALID,93.8367,VALID,0,VALID,23.4866,VALID,68,VALID,0.704687,
2011-12-17, 01:55:04,VALID,996.6,VALID,0,VALID,93.8138,VALID,0,VALID,23.4671,VALID,76,VALID,0.443359,
2011-12-17, 01:56:04,VALID,996.594,VALID,0,VALID,93.7757,VALID,0,VALID,23.4671,VALID,76,VALID,0.00195313,
2011-12-17, 01:57:04,VALID,996.583,VALID,0,VALID,93.7985,VALID,0,VALID,23.4475,VALID,326,VALID,0.63125,
2011-12-17, 01:58:04,VALID,996.593,VALID,0,VALID,93.8138,VALID,0,VALID,23.4866,VALID,326,VALID,0.508984,
2011-12-17, 01:59:04,VALID,996.606,VALID,0,VALID,93.852,VALID,0,VALID,23.5061,VALID,326,VALID,0,
2011-12-17, 02:00:04,VALID,996.619,VALID,0,VALID,93.8825,VALID,0,VALID,23.5469,VALID,326,VALID,0.0542969,
2011-12-17, 02:01:04,VALID,996.612,VALID,0,VALID,93.8977,VALID,0,VALID,23.5256,VALID,326,VALID,0.351563,
2011-12-17, 02:02:04,VALID,996.618,VALID,0,VALID,93.9054,VALID,0,VALID,23.5451,VALID,326,VALID,0.245703,
2011-12-17, 02:03:04,VALID,996.63,VALID,0,VALID,93.9054,VALID,0,VALID,23.5451,VALID,326,VALID,0,
2011-12-17, 02:04:04,VALID,996.62,VALID,0,VALID,93.9206,VALID,0,VALID,23.5469,VALID,326,VALID,0,
2011-12-17, 02:05:04,VALID,996.579,VALID,0,VALID,93.9359,VALID,0,VALID,23.5256,VALID,94,VALID,0.569531,
2011-12-17, 02:06:04,VALID,996.582,VALID,0,VALID,93.9206,VALID,0,VALID,23.5451,VALID,98,VALID,0.687109,
2011-12-17, 02:07:04,VALID,996.57,VALID,0,VALID,93.9283,VALID,0,VALID,23.6054,VALID,98,VALID,0.639453,
2011-12-17, 02:08:04,VALID,996.532,VALID,0,VALID,93.8825,VALID,0,VALID,23.6232,VALID,98,VALID,0.544531,
2011-12-17, 02:09:04,VALID,996.571,VALID,0,VALID,93.852,VALID,0,VALID,23.6232,VALID,98,VALID,0.526953,
2011-12-17, 02:10:04,VALID,996.544,VALID,0,VALID,93.7833,VALID,0,VALID,23.6445,VALID,98,VALID,0.292578,
2011-12-17, 02:11:04,VALID,996.519,VALID,0,VALID,93.7375,VALID,0,VALID,23.625,VALID,107,VALID,0.576172,
2011-12-17, 02:12:04,VALID,996.547,VALID,0,VALID,93.6612,VALID,0,VALID,23.625,VALID,107,VALID,0.65,
2011-12-17, 02:13:04,VALID,996.526,VALID,0,VALID,93.6231,VALID,0,VALID,23.6036,VALID,107,VALID,0.75,
2011-12-17, 02:14:04,VALID,996.537,VALID,0,VALID,93.6078,VALID,0,VALID,23.6445,VALID,107,VALID,0.712891,
2011-12-17, 02:15:04,VALID,996.513,VALID,0,VALID,93.5391,VALID,0,VALID,23.6232,VALID,107,VALID,0.642187,
2011-12-17, 02:16:04,VALID,996.516,VALID,0,VALID,93.501,VALID,0,VALID,23.6036,VALID,142,VALID,0.782031,
2011-12-17, 02:17:04,VALID,996.506,VALID,0,VALID,93.4934,VALID,0,VALID,23.6036,VALID,143,VALID,0.782031,
2011-12-17, 02:18:04,VALID,996.487,VALID,0,VALID,93.44,VALID,0,VALID,23.6445,VALID,143,VALID,0.869922,
2011-12-17, 02:19:04,VALID,996.51,VALID,0,VALID,93.3331,VALID,0,VALID,23.6445,VALID,142,VALID,1.19687,
2011-12-17, 02:20:04,VALID,996.498,VALID,0,VALID,93.234,VALID,0,VALID,23.6232,VALID,142,VALID,1.18711,
2011-12-17, 02:21:04,VALID,996.482,VALID,0,VALID,93.0814,VALID,0,VALID,23.6232,VALID,142,VALID,1.20117,
2011-12-17, 02:22:04,VALID,996.457,VALID,0,VALID,93.028,VALID,0,VALID,23.6232,VALID,132,VALID,1.17383,
2011-12-17, 02:23:04,VALID,996.444,VALID,0,VALID,93.0508,VALID,0,VALID,23.6622,VALID,130,VALID,1.31094,
2011-12-17, 02:24:04,VALID,996.437,VALID,0,VALID,92.8983,VALID,0,VALID,23.6835,VALID,123,VALID,1.33125,
2011-12-17, 02:25:04,VALID,996.416,VALID,0,VALID,92.7685,VALID,0,VALID,23.6622,VALID,133,VALID,1.09805,
2011-12-17, 02:26:04,VALID,996.418,VALID,0,VALID,92.7075,VALID,0,VALID,23.6427,VALID,127,VALID,1.22383,
2011-12-17, 02:27:04,VALID,996.392,VALID,0,VALID,92.6999,VALID,0,VALID,23.6835,VALID,127,VALID,0.716016,
2011-12-17, 02:28:04,VALID,996.354,VALID,0,VALID,92.6541,VALID,0,VALID,23.6622,VALID,127,VALID,0.558203,
2011-12-17, 02:29:04,VALID,996.368,VALID,0,VALID,92.6388,VALID,0,VALID,23.6622,VALID,187,VALID,1.1082,
2011-12-17, 02:30:04,VALID,996.337,VALID,0,VALID,92.6388,VALID,0,VALID,23.6622,VALID,171,VALID,1.20938,
2011-12-17, 02:31:04,VALID,996.331,VALID,0,VALID,92.6083,VALID,0,VALID,23.7207,VALID,171,VALID,0.670703,
2011-12-17, 02:32:04,VALID,996.306,VALID,0,VALID,92.532,VALID,0,VALID,23.7012,VALID,171,VALID,0.682813,
2011-12-17, 02:33:04,VALID,996.306,VALID,0,VALID,92.4252,VALID,0,VALID,23.7207,VALID,144,VALID,0.540234,
2011-12-17, 02:34:04,VALID,996.368,VALID,0,VALID,92.3718,VALID,0,VALID,23.7207,VALID,144,VALID,0.341016,
2011-12-17, 02:35:04,VALID,996.381,VALID,0,VALID,92.2345,VALID,0,VALID,23.7012,VALID,144,VALID,0.298438,
2011-12-17, 02:36:04,VALID,996.375,VALID,0,VALID,92.1353,VALID,0,VALID,23.6817,VALID,144,VALID,0,
2011-12-17, 02:37:04,VALID,996.355,VALID,0,VALID,92.1811,VALID,0,VALID,23.7012,VALID,144,VALID,0.471094,
2011-12-17, 02:38:04,VALID,996.365,VALID,0,VALID,92.2497,VALID,0.104696,VALID,23.7012,VALID,144,VALID,0.246484,
2011-12-17, 02:39:04,VALID,996.334,VALID,0,VALID,92.2345,VALID,0,VALID,23.7012,VALID,144,VALID,0,
2011-12-17, 02:40:04,VALID,996.374,VALID,0,VALID,92.204,VALID,0,VALID,23.7012,VALID,144,VALID,0.281641,
2011-12-17, 02:41:04,VALID,996.37,VALID,0,VALID,92.1963,VALID,0,VALID,23.7012,VALID,144,VALID,0.396875,
2011-12-17, 02:42:04,VALID,996.366,VALID,0,VALID,92.1353,VALID,0,VALID,23.6817,VALID,144,VALID,0.3375,
2011-12-17, 02:43:04,VALID,996.412,VALID,0,VALID,92.0743,VALID,0,VALID,23.6817,VALID,144,VALID,0.283203,
2011-12-17, 02:44:04,VALID,996.368,VALID,0,VALID,92.0209,VALID,0,VALID,23.6817,VALID,144,VALID,0.139844,
2011-12-17, 02:45:04,VALID,996.392,VALID,0,VALID,91.9217,VALID,0,VALID,23.6622,VALID,144,VALID,0.2,
2011-12-17, 02:46:04,VALID,996.406,VALID,0,VALID,91.8377,VALID,0,VALID,23.6427,VALID,144,VALID,0,
2011-12-17, 02:47:04,VALID,996.413,VALID,0,VALID,91.853,VALID,0,VALID,23.6036,VALID,144,VALID,0,
2011-12-17, 02:48:04,VALID,996.394,VALID,0,VALID,91.9369,VALID,0,VALID,23.6036,VALID,144,VALID,0,
2011-12-17, 02:49:04,VALID,996.365,VALID,0,VALID,91.9827,VALID,0,VALID,23.5841,VALID,144,VALID,0.00820312,
2011-12-17, 02:50:04,VALID,996.344,VALID,0,VALID,92.0971,VALID,0,VALID,23.5451,VALID,144,VALID,0.53125,
2011-12-17, 02:51:04,VALID,996.34,VALID,0,VALID,92.2345,VALID,0,VALID,23.5646,VALID,101,VALID,0.892969,
2011-12-17, 02:52:04,VALID,996.338,VALID,0,VALID,92.2497,VALID,0,VALID,23.5646,VALID,100,VALID,0.909766,
2011-12-17, 02:53:04,VALID,996.366,VALID,0,VALID,92.1734,VALID,0,VALID,23.5841,VALID,100,VALID,0.649219,
2011-12-17, 02:54:04,VALID,996.365,VALID,0,VALID,92.0514,VALID,0,VALID,23.5646,VALID,100,VALID,0.0761719,
2011-12-17, 02:55:04,VALID,996.353,VALID,0,VALID,92.0056,VALID,0,VALID,23.5451,VALID,100,VALID,0.344531,
2011-12-17, 02:56:04,VALID,996.358,VALID,0,VALID,92.0437,VALID,0,VALID,23.5061,VALID,100,VALID,0,
2011-12-17, 02:57:04,VALID,996.294,VALID,0,VALID,92.1582,VALID,0,VALID,23.5061,VALID,100,VALID,0.305859,
2011-12-17, 02:58:04,VALID,996.283,VALID,0,VALID,92.265,VALID,0,VALID,23.5061,VALID,100,VALID,0.353125,
2011-12-17, 02:59:04,VALID,996.311,VALID,0,VALID,92.265,VALID,0,VALID,23.4866,VALID,100,VALID,0.382422,
2011-12-17, 03:00:04,VALID,996.303,VALID,0,VALID,92.2345,VALID,0,VALID,23.428,VALID,82,VALID,0.642578,
2011-12-17, 03:01:04,VALID,996.34,VALID,0,VALID,92.3794,VALID,0,VALID,23.428,VALID,15,VALID,0.556641,
2011-12-17, 03:02:04,VALID,996.301,VALID,0,VALID,92.5778,VALID,0,VALID,23.428,VALID,15,VALID,0.349609,
2011-12-17, 03:03:04,VALID,996.301,VALID,0,VALID,92.5931,VALID,0,VALID,23.389,VALID,15,VALID,0.330859,
2011-12-17, 03:04:04,VALID,996.299,VALID,0,VALID,92.6465,VALID,0,VALID,23.35,VALID,15,VALID,0.216797,
2011-12-17, 03:05:04,VALID,996.271,VALID,0,VALID,92.7533,VALID,0,VALID,23.3305,VALID,15,VALID,0.01875,
2011-12-17, 03:06:04,VALID,996.281,VALID,0,VALID,92.822,VALID,0,VALID,23.2897,VALID,15,VALID,0,
2011-12-17, 03:07:04,VALID,996.287,VALID,0,VALID,92.8754,VALID,0,VALID,23.2915,VALID,15,VALID,0.0289063,
2011-12-17, 03:08:04,VALID,996.275,VALID,0,VALID,92.9898,VALID,0,VALID,23.2915,VALID,15,VALID,0.361328,
2011-12-17, 03:09:04,VALID,996.251,VALID,0,VALID,93.1119,VALID,0,VALID,23.2719,VALID,15,VALID,0.644922,
2011-12-17, 03:10:04,VALID,996.244,VALID,0,VALID,93.1195,VALID,0,VALID,23.2329,VALID,15,VALID,0.528516,
2011-12-17, 03:11:04,VALID,996.302,VALID,0,VALID,93.15,VALID,0,VALID,23.2542,VALID,15,VALID,0,
2011-12-17, 03:12:04,VALID,996.308,VALID,0,VALID,93.1577,VALID,0,VALID,23.2134,VALID,15,VALID,0,
2011-12-17, 03:13:04,VALID,996.284,VALID,0,VALID,93.1271,VALID,0,VALID,23.1549,VALID,15,VALID,0,
2011-12-17, 03:14:04,VALID,996.303,VALID,0,VALID,93.1348,VALID,0,VALID,23.1549,VALID,15,VALID,0,
2011-12-17, 03:15:04,VALID,996.303,VALID,0,VALID,93.1729,VALID,0,VALID,23.1354,VALID,15,VALID,0,
2011-12-17, 03:16:04,VALID,996.297,VALID,0,VALID,93.2645,VALID,0,VALID,23.1354,VALID,15,VALID,0,
2011-12-17, 03:17:04,VALID,996.311,VALID,0,VALID,93.356,VALID,0,VALID,23.1549,VALID,15,VALID,0,
2011-12-17, 03:18:04,VALID,996.299,VALID,0,VALID,93.4171,VALID,0,VALID,23.1549,VALID,15,VALID,0,
2011-12-17, 03:19:04,VALID,996.294,VALID,0,VALID,93.4476,VALID,0,VALID,23.1549,VALID,15,VALID,0,
2011-12-17, 03:20:04,VALID,996.294,VALID,0,VALID,93.4781,VALID,0,VALID,23.1354,VALID,15,VALID,0,
2011-12-17, 03:21:04,VALID,996.306,VALID,0,VALID,93.5468,VALID,0,VALID,23.1549,VALID,15,VALID,0,
2011-12-17, 03:22:04,VALID,996.311,VALID,0,VALID,93.6002,VALID,0,VALID,23.1939,VALID,15,VALID,0.344922,
2011-12-17, 03:23:04,VALID,996.325,VALID,0,VALID,93.6536,VALID,0,VALID,23.2134,VALID,15,VALID,0.119922,
2011-12-17, 03:24:04,VALID,996.319,VALID,0,VALID,93.6688,VALID,0,VALID,23.2134,VALID,15,VALID,0,
2011-12-17, 03:25:04,VALID,996.308,VALID,0,VALID,93.6612,VALID,0,VALID,23.2152,VALID,15,VALID,0.223438,
2011-12-17, 03:26:04,VALID,996.289,VALID,0,VALID,93.6994,VALID,0,VALID,23.2347,VALID,15,VALID,0.209375,
2011-12-17, 03:27:04,VALID,996.308,VALID,0,VALID,93.707,VALID,0,VALID,23.1939,VALID,15,VALID,0.585938,
2011-12-17, 03:28:04,VALID,996.314,VALID,0,VALID,93.7299,VALID,0,VALID,23.2152,VALID,318,VALID,0.716406,
2011-12-17, 03:29:04,VALID,996.286,VALID,0,VALID,93.7299,VALID,0,VALID,23.1939,VALID,318,VALID,0.340625,
2011-12-17, 03:30:04,VALID,996.292,VALID,0,VALID,93.7223,VALID,0,VALID,23.1939,VALID,318,VALID,0.331641,
2011-12-17, 03:31:04,VALID,996.334,VALID,0,VALID,93.7757,VALID,0,VALID,23.1939,VALID,318,VALID,0.430859,
2011-12-17, 03:32:04,VALID,996.357,VALID,0,VALID,93.7604,VALID,0,VALID,23.1957,VALID,318,VALID,0.512109,
2011-12-17, 03:33:04,VALID,996.37,VALID,0,VALID,93.7909,VALID,0,VALID,23.1549,VALID,318,VALID,0.2375,
2011-12-17, 03:34:04,VALID,996.361,VALID,0,VALID,93.8138,VALID,0,VALID,23.1549,VALID,318,VALID,0.339453,
2011-12-17, 03:35:04,VALID,996.381,VALID,0,VALID,93.8367,VALID,0,VALID,23.1762,VALID,318,VALID,0.283203,
2011-12-17, 03:36:04,VALID,996.404,VALID,0,VALID,93.8367,VALID,0,VALID,23.1566,VALID,318,VALID,0.621875,
2011-12-17, 03:37:04,VALID,996.434,VALID,0,VALID,93.8443,VALID,0,VALID,23.1354,VALID,318,VALID,0.69375,
2011-12-17, 03:38:04,VALID,996.422,VALID,0,VALID,93.8748,VALID,0,VALID,23.1371,VALID,318,VALID,0.359375,
2011-12-17, 03:39:04,VALID,996.392,VALID,0,VALID,93.913,VALID,0,VALID,23.1371,VALID,334,VALID,0.80625,
2011-12-17, 03:40:04,VALID,996.391,VALID,0,VALID,93.9206,VALID,0,VALID,23.1371,VALID,13,VALID,1.00742,
2011-12-17, 03:41:04,VALID,996.38,VALID,0,VALID,93.9588,VALID,0,VALID,23.1159,VALID,13,VALID,0.878516,
2011-12-17, 03:42:04,VALID,996.427,VALID,0,VALID,93.974,VALID,0,VALID,23.1159,VALID,17,VALID,0.690625,
2011-12-17, 03:43:04,VALID,996.413,VALID,0,VALID,93.974,VALID,0,VALID,23.1566,VALID,17,VALID,0.653125,
2011-12-17, 03:44:04,VALID,996.452,VALID,0,VALID,93.974,VALID,0,VALID,23.1371,VALID,36,VALID,0.225781,
2011-12-17, 03:45:04,VALID,996.441,VALID,0,VALID,93.9283,VALID,0,VALID,23.0786,VALID,36,VALID,0.159375,
2011-12-17, 03:46:04,VALID,996.429,VALID,0,VALID,93.9206,VALID,0,VALID,23.0378,VALID,36,VALID,0.38125,
2011-12-17, 03:47:04,VALID,996.4,VALID,0,VALID,93.9283,VALID,0,VALID,23.0591,VALID,36,VALID,0.584375,
2011-12-17, 03:48:04,VALID,996.424,VALID,0,VALID,93.9359,VALID,0,VALID,23.0573,VALID,36,VALID,0.887891,